This demonstration page uses our WeatherBlox Daily Observations layout. Learn more.

Left ArrowRight Arrow

Hourly Observations for October 31, 2016

Temp ( °F °C ) Dew Point ( °F °C ) Humidity (%) Winds ( mph kmh ) Pressure ( in mb ) Visibility ( mi km ) Precip ( " mm )
12:17 am 00:17 Mostly Cloudy 48 9 45 7 87 87 NE 5 7 30.21 1023 10 16.0934 N/A
12:37 am 00:37 Cloudy 48 9 45 7 87 87 NE 3 6 30.21 1023 10 16.0934 N/A
12:57 am 00:57 Cloudy 50 10 46 8 88 88 NE 3 6 30.21 1023 10 16.0934 N/A
1:17 am 01:17 Cloudy 50 10 46 8 88 88 ENE 5 7 30.21 1023 10 16.0934 N/A
1:37 am 01:37 Cloudy 50 10 46 8 88 88 E 9 15 30.21 1023 10 16.0934 N/A
1:57 am 01:57 Cloudy 50 10 45 7 82 82 ENE 9 15 30.21 1023 10 16.0934 N/A
2:17 am 02:17 Cloudy 48 9 43 6 82 82 ENE 8 13 30.21 1023 10 16.0934 N/A
2:37 am 02:37 Cloudy 48 9 43 6 82 82 ENE 7 11 30.21 1023 10 16.0934 N/A
2:57 am 02:57 Cloudy 48 9 43 6 82 82 NE 6 9 30.21 1023 10 16.0934 N/A
3:17 am 03:17 Cloudy 48 9 43 6 82 82 ENE 6 9 30.21 1023 10 16.0934 N/A
3:37 am 03:37 Cloudy 48 9 43 6 82 82 ENE 5 7 30.21 1023 10 16.0934 N/A
3:58 am 03:58 Cloudy 48 9 43 6 82 82 ENE 3 6 30.21 1023 10 16.0934 N/A
4:17 am 04:17 Cloudy 48 9 43 6 82 82 ENE 3 6 30.21 1023 10 16.0934 N/A
4:37 am 04:37 Cloudy 48 9 43 6 82 82 NE 5 7 30.21 1023 10 16.0934 N/A
4:57 am 04:57 Cloudy 46 8 43 6 87 87 ENE 5 7 30.21 1023 10 16.0934 N/A
5:17 am 05:17 Cloudy 46 8 43 6 87 87 NE 5 7 30.21 1023 10 16.0934 N/A
5:37 am 05:37 Cloudy 46 8 43 6 87 87 NE 3 6 30.21 1023 10 16.0934 N/A
5:57 am 05:57 Cloudy 46 8 43 6 87 87 E 5 7 30.21 1023 10 16.0934 N/A
6:17 am 06:17 Cloudy 48 9 43 6 82 82 E 8 13 30.21 1023 10 16.0934 N/A
6:37 am 06:37 Mostly Cloudy 46 8 43 6 87 87 ESE 6 9 30.18 1022 10 16.0934 N/A
6:57 am 06:57 Mostly Cloudy 46 8 43 6 87 87 E 3 6 30.21 1023 10 16.0934 N/A
7:17 am 07:17 Cloudy 46 8 43 6 87 87 ENE 3 6 30.21 1023 10 16.0934 N/A
7:37 am 07:37 Cloudy 46 8 43 6 87 87 E 5 7 30.21 1023 10 16.0934 N/A
7:57 am 07:57 Cloudy 45 7 43 6 93 93 E 5 7 30.18 1022 10 16.0934 N/A
8:17 am 08:17 Cloudy 45 7 43 6 93 93 E 3 6 30.21 1023 10 16.0934 N/A
8:37 am 08:37 Cloudy 46 8 43 6 87 87 E 6 9 30.21 1023 10 16.0934 N/A
8:57 am 08:57 Cloudy 46 8 43 6 87 87 E 7 11 30.21 1023 10 16.0934 N/A
9:17 am 09:17 Cloudy 48 9 43 6 82 82 E 8 13 30.21 1023 10 16.0934 N/A
9:38 am 09:38 Cloudy 48 9 43 6 82 82 ESE 9 15 30.21 1023 10 16.0934 N/A
9:57 am 09:57 Mostly Cloudy 48 9 45 7 87 87 ESE 9 15 30.21 1023 10 16.0934 N/A
10:17 am 10:17 Mostly Cloudy 50 10 45 7 82 82 ESE 9 15 30.21 1023 10 16.0934 N/A
10:38 am 10:38 Partly Cloudy 52 11 45 7 77 77 ESE 5 7 30.21 1023 10 16.0934 N/A
10:57 am 10:57 Sunny 52 11 45 7 77 77 SE 8 13 30.21 1023 10 16.0934 N/A
11:17 am 11:17 Partly Cloudy 54 12 46 8 77 77 ESE 8 13 30.21 1023 10 16.0934 N/A
11:38 am 11:38 Partly Cloudy 54 12 46 8 77 77 SE 9 15 30.21 1023 10 16.0934 N/A
11:57 am 11:57 Mostly Cloudy 54 12 46 8 77 77 SE 9 15 30.21 1023 10 16.0934 N/A
12:17 pm 12:17 Cloudy 55 13 46 8 72 72 SSE 6 9 30.21 1023 10 16.0934 N/A
12:38 pm 12:38 Cloudy 55 13 46 8 72 72 SSE 6 9 30.15 1021 10 16.0934 N/A
12:57 pm 12:57 Cloudy 57 14 48 9 72 72 SSE 7 11 30.15 1021 10 16.0934 N/A
1:17 pm 13:17 Cloudy 57 14 48 9 72 72 SSE 7 11 30.15 1021 10 16.0934 N/A
1:38 pm 13:38 Cloudy 57 14 48 9 72 72 SE 7 11 30.12 1020 10 16.0934 N/A
1:57 pm 13:57 Cloudy 59 15 48 9 68 68 SE 7 11 30.12 1020 10 16.0934 N/A
2:17 pm 14:17 Mostly Cloudy 59 15 50 10 72 72 S 5 7 30.12 1020 10 16.0934 N/A
2:38 pm 14:38 Partly Cloudy 59 15 50 10 72 72 SSE 8 13 30.09 1019 10 16.0934 N/A
2:57 pm 14:57 Mostly Cloudy 59 15 50 10 72 72 SSE 8 13 30.09 1019 10 16.0934 N/A
3:22 pm 15:22 Partly Cloudy 61 16 50 10 68 68 S 7 11 30.09 1019 10 16.0934 N/A
3:38 pm 15:38 Sunny 63 17 50 10 64 64 SE 9 15 30.09 1019 10 16.0934 N/A
3:57 pm 15:57 Sunny 63 17 50 10 64 64 SE 9 15 30.09 1019 10 16.0934 N/A
4:17 pm 16:17 Sunny 63 17 50 10 64 64 SSE 5 7 30.06 1018 10 16.0934 N/A
4:37 pm 16:37 Sunny 63 17 50 10 64 64 SE 8 13 30.06 1018 10 16.0934 N/A
4:57 pm 16:57 Sunny 63 17 50 10 64 64 SE 8 13 30.06 1018 10 16.0934 N/A
5:17 pm 17:17 Sunny 63 17 50 10 64 64 ESE 7 11 30.06 1018 10 16.0934 N/A
5:37 pm 17:37 Sunny 61 16 50 10 68 68 SE 9 15 30.06 1018 10 16.0934 N/A
5:57 pm 17:57 Sunny 61 16 50 10 68 68 SE 8 13 30.06 1018 10 16.0934 N/A
6:18 pm 18:18 Sunny 59 15 50 10 72 72 ESE 7 11 30.03 1017 10 16.0934 N/A
6:37 pm 18:37 Sunny 59 15 50 10 72 72 SE 7 11 30.03 1017 10 16.0934 N/A
6:57 pm 18:57 Clear 57 14 50 10 77 77 ESE 7 11 30.03 1017 10 16.0934 N/A
7:18 pm 19:18 Clear 57 14 50 10 77 77 ESE 8 13 30.03 1017 10 16.0934 N/A
7:37 pm 19:37 Clear 55 13 50 10 82 82 ESE 7 11 30.06 1018 10 16.0934 N/A
8:18 pm 20:18 Clear 55 13 50 10 82 82 ESE 6 9 30.06 1018 10 16.0934 N/A
8:37 pm 20:37 Clear 55 13 50 10 82 82 ESE 9 15 30.03 1017 10 16.0934 N/A
8:57 pm 20:57 Clear 55 13 48 9 77 77 SE 8 13 30.03 1017 10 16.0934 N/A
9:18 pm 21:18 Clear 54 12 48 9 82 82 SE 8 13 30.03 1017 10 16.0934 N/A
9:37 pm 21:37 Clear 54 12 48 9 82 82 SE 9 15 30.03 1017 10 16.0934 N/A
9:57 pm 21:57 Partly Cloudy 54 12 48 9 82 82 SE 8 13 30.03 1017 10 16.0934 N/A
10:18 pm 22:18 Mostly Cloudy 54 12 48 9 82 82 SE 6 9 30.03 1017 10 16.0934 N/A
10:37 pm 22:37 Partly Cloudy 54 12 48 9 82 82 SE 8 13 30.03 1017 10 16.0934 N/A
10:57 pm 22:57 Clear 54 12 48 9 82 82 SE 8 13 30.03 1017 10 16.0934 N/A
11:17 pm 23:17 Clear 54 12 50 10 88 88 SE 8 13 30.03 1017 10 16.0934 N/A
11:37 pm 23:37 Partly Cloudy 54 12 50 10 88 88 SE 9 15 30.03 1017 10 16.0934 N/A
11:58 pm 23:58 Partly Cloudy 54 12 50 10 88 88 SSE 7 11 30 1016 10 16.0934 N/A

Powered by AerisWeather